Location: Alsip
(41.6689°N, 87.7387°W)
Time: 14:09:01
(UTC+00:00)

Cosmos 2346 Rocket - Pass Details

Date: 14 July 2020
Orbit: 936 x 981 km, 82.9° (Epoch: 04 August)

Event Time Altitude Azimuth Distance (km) Brightness Sun altitude
Rises 07:44:30 0° 351° (N) 3,654 8.4 -22.0°
Reaches altitude 10° 07:47:02 10° 351° (N) 2,697 7.5 -21.8°
Maximum altitude 07:53:11 81° 265° (W) 965 4.3 -21.3°
Enters shadow 07:55:54 35° 182° (S) 1,469 5.0 -21.0°
